CAPE
3 0 0 5 8 40 0 3 28 127 18 0 498 637 1155 1489 2152 2340 2448 2092 2430 2317 1837 1279 1151 1377 1495 1273 1071 1084 1101 966 972 996 891 841 457 193 62 9 6 0 0 2
1 0 0 0 0 0 10 6 42 69 34 56 697 1012 844 1831 2300 2140 2100 2084 2450 1847 1280 1262 1598 1780 1492 1550 1442 1180 1032 970 1133 1146 1035 972 506 111 36 2 8 3 3 0
1 0 4 12 2 0 0 96 90 122 168 421 366 1093 1256 1691 2386 2115 1863 2045 2361 1454 1521 1857 1831 1893 1813 1731 1951 1676 1599 1404 1332 1324 1144 1061 614 172 0 3 2 4 5 5
0 1 2 60 79 88 14 5 25 78 125 134 1252 1252 1469 1783 2463 2367 1925 2250 1896 1403 1943 2182 2149 2009 1783 1432 1454 1437 1401 1192 1281 1424 1599 1258 790 135 1 1 1 0 3 0
0 0 0 49 67 65 9 4 29 17 212 854 1068 1378 1764 2285 2336 2522 2166 2311 1860 1876 1937 1599 1406 1279 1435 1343 1262 1104 700 180 127 318 833 776 603 27 3 7 1 0 3 3
0 0 1 35 182 354 184 205 247 637 654 704 818 33 1883 2378 3034 2983 2730 2383 1898 1244 841 531 274 482 774 545 251 23 0 1 2 3 48 300 221 2 1 0 5 3 2 1
0 0 0 7 1001 946 105 557 1861 1719 1486 1018 842 2052 2283 2262 2253 1919 1606 1121 857 660 563 223 44 67 80 6 0 2 1 1 3 2 0 1 0 0 0 5 2 3 0 0
0 0 0 315 593 364 1910 2066 2099 2020 1790 2262 2238 1487 1205 973 802 711 667 566 756 398 95 8 0 0 0 1 1 2 1 4 5 4 2 0 0 0 0 0 2 2 2 1
2 0 1075 1097 1848 1997 1968 2073 2307 2205 1866 2007 1310 953 259 184 304 436 579 526 353 80 3 2 2 1 2 3 2 2 3 7 6 5 3 1 0 1 0 0 2 3 0 0
7 35 566 972 1402 1729 1788 2004 2090 2047 1944 1489 1291 552 91 40 63 93 218 151 29 12 2 2 3 3 2 2 2 3 5 6 5 4 3 2 3 2 1 0 0 0 1 5
0 663 606 1071 1098 1251 1611 1778 1921 2009 1826 1664 1118 381 106 2 1 1 2 2 0 1 4 0 1 3 2 3 2 2 2 2 3 3 1 1 0 1 1 0 1 1 3 3
282 466 558 886 941 1059 1232 1416 1607 1465 1148 1130 653 252 31 7 3 3 5 3 4 2 3 4 2 3 2 3 1 2 1 0 0 0 0 0 1 0 0 0 0 0 0 0
33 213 509 639 769 827 968 999 1245 1140 871 610 219 34 5 3 6 5 5 4 3 3 2 2 5 4 3 4 4 0 0 0 0 0 0 0 0 0 0 0 0 0 0 0
24 47 365 265 365 481 766 811 700 653 323 184 117 31 5 6 2 3 0 2 4 4 6 3 4 4 2 6 3 1 0 0 0 0 0 0 0 0 0 0 0 0 0 0
19 55 64 179 193 316 395 644 649 593 283 187 140 60 3 3 4 2 1 3 0 2 1 0 2 1 2 1 0 0 0 0 0 0 0 0 0 0 0 0 0 0 0 0
26 38 66 84 131 134 123 331 478 368 330 190 180 114 89 27 1 1 0 2 2 3 1 1 2 0 0 0 0 0 0 0 0 0 0 0 0 0 0 0 0 0 0 0
62 51 24 172 157 27 43 41 340 346 374 373 326 146 51 10 7 6 3 1 0 0 2 3 0 0 0 0 0 0 0 0 0 0 0 0 0 0 0 0 0 0 0 0
88 93 91 147 126 88 1 0 1 408 348 315 137 26 28 8 7 7 7 6 4 1 0 0 0 0 0 0 0 0 0 0 0 0 0 0 0 0 0 0 0 0 0 0
53 73 93 106 168 181 74 23 30 288 465 198 96 47 32 32 63 11 2 0 2 0 0 0 0 0 0 0 0 0 0 0 0 3 4 0 4 8 9 9 5 3 0 0
66 89 97 123 151 170 177 52 77 24 160 399 270 266 139 125 54 4 1 1 1 0 0 0 0 0 0 0 0 0 3 6 13 10 4 11 18 24 10 2 8 4 8 7
96 203 231 249 267 255 268 191 60 332 332 503 483 319 207 84 15 11 4 4 2 0 0 0 0 1 1 0 0 1 11 12 11 12 1 3 3 14 0 6 4 2 3 0
141 249 340 377 492 526 478 236 113 268 346 683 445 287 128 22 18 4 4 0 0 0 0 0 6 0 0 0 12 6 15 4 1 4 7 6 0 3 3 0 5 10 27 26
15 225 388 478 588 637 637 536 499 727 729 592 408 232 143 61 86 57 14 6 0 0 2 0 0 0 0 5 0 0 0 0 0 0 0 0 0 4 2 4 0 0 4 13
12 211 336 847 1062 1046 1065 938 827 949 816 607 415 226 141 148 6 1 0 0 0 0 0 0 0 0 0 0 0 0 0 0 0 0 0 0 0 0 1 5 2 4 6 3
47 234 346 434 432 394 292 114 77 29 11 14 2 4 0 0 0 0 0 0 0 0 0 0 0 0 0 0 0 0 0 0 0 0 0 0 1 3 1 3 3 4 9 12
62 115 60 51 50 55 47 32 5 2 1 1 2 2 3 1 1 0 0 0 0 0 0 0 0 0 0 0 0 0 0 0 0 4 0 10 8 11 10 8 11 10 6 1
9 58 42 2 4 4 4 2 1 2 2 1 0 3 1 1 1 0 0 0 0 0 0 0 0 0 0 1 0 2 11 1 0 0 1 3 5 6 10 7 7 0 0 0
CIN
-81 -0 -0 -25 -19 -10 -0 -60 -54 -12 -97 -18 -9 -10 -4 -22 -57 -77 -75 -85 -49 -54 -84 -107 -90 -33 -0 -0 -2 -4 -8 -1 -0 -1 -0 -9 -24 -51 -46 -36 -0 -0 -0 -3
-3 -0 -0 -0 -0 -0 -4 -26 -41 -20 -38 -181 -4 -33 -16 -23 -56 -80 -81 -64 -34 -85 -129 -89 -37 -2 -0 -1 -5 -5 -1 -3 -1 -3 -1 -20 -20 -57 -45 -2 -0 -0 -0 -0
-56 -0 -2 -4 -7 -0 -0 -4 -8 -7 -4 -2 -4 -13 -24 -16 -39 -61 -62 -29 -28 -118 -84 -29 -27 -4 -4 -2 -8 -11 -6 -0 -1 -2 -2 -6 -2 -35 -0 -0 -0 -0 -0 -0
-0 -0 -3 -4 -7 -7 -2 -6 -9 -9 -17 -21 -20 -33 -41 -46 -35 -34 -38 -13 -73 -112 -22 -1 -12 -22 -33 -39 -29 -8 -5 -20 -9 -7 -1 -1 -0 -35 -1 -0 -0 -0 -0 -0
-0 -0 -0 -5 -6 -5 -2 -7 -6 -6 -6 -18 -28 -44 -71 -72 -47 -10 -17 -12 -56 -54 -33 -49 -71 -90 -46 -32 -18 -18 -64 -173 -180 -116 -30 -22 -3 -36 -7 -93 -21 -0 -0 -1
-0 -0 -23 -4 -2 -5 -8 -6 -2 -12 -1 -3 -15 -23 -57 -98 -56 -38 -43 -80 -100 -198 -235 -275 -332 -214 -116 -130 -165 -258 -0 -0 -0 -0 -185 -60 -29 -25 -0 -0 -0 -0 -0 -0
-0 -0 -0 -34 -4 -14 -5 -13 -43 -5 -3 -5 -14 -69 -148 -153 -128 -155 -185 -242 -274 -275 -276 -380 -489 -425 -365 -344 -0 -0 -0 -0 -0 -0 -0 -6 -0 -0 -7 -0 -0 -0 -0 -0
-0 -0 -0 -10 -19 -5 -59 -59 -63 -50 -63 -53 -133 -245 -301 -355 -348 -335 -318 -326 -229 -320 -449 -460 -0 -0 -0 -0 -0 -0 -0 -0 -0 -0 -0 -0 -0 -0 -0 -0 -0 -0 -0 -0
-4 -0 -32 -41 -22 -68 -64 -47 -34 -34 -47 -80 -202 -307 -559 -533 -441 -340 -249 -240 -280 -421 -0 -0 -0 -0 -0 -0 -0 -0 -0 -0 -0 -0 -0 -0 -0 -0 -0 -0 -0 -0 -0 -0
-11 -12 -2 -26 -10 -34 -65 -45 -45 -28 -30 -101 -175 -381 -554 -532 -462 -431 -353 -357 -443 -471 -0 -0 -0 -0 -0 -0 -0 -0 -0 -0 -0 -0 -0 -0 -0 -0 -0 -0 -0 -0 -0 -0
-0 -9 -4 -1 -15 -59 -36 -34 -21 -10 -29 -51 -167 -338 -433 -324 -0 -0 -0 -0 -0 -0 -0 -0 -0 -0 -0 -0 -0 -0 -0 -0 -0 -0 -0 -0 -0 -0 -0 -0 -0 -0 -0 -0
-21 -2 -10 -0 -8 -22 -11 -13 -9 -50 -110 -100 -190 -298 -414 -147 -0 -0 -0 -0 -0 -0 -0 -0 -0 -0 -0 -0 -0 -0 -0 -0 -0 -0 -0 -0 -0 -0 -0 -0 -0 -0 -0 -0
-3 -6 -1 -1 -9 -9 -6 -8 -5 -36 -97 -141 -237 -305 -2 -0 -0 -0 -0 -0 -0 -0 -0 -0 -0 -0 -0 -0 -0 -0 -0 -0 -0 -0 -0 -0 -0 -0 -0 -0 -0 -0 -0 -0
-46 -52 -2 -1 -1 -0 -0 -1 -11 -42 -136 -176 -198 -229 -0 -0 -0 -0 -0 -0 -0 -0 -0 -0 -0 -0 -0 -0 -0 -1 -0 -0 -0 -0 -0 -0 -0 -0 -0 -0 -0 -0 -0 -0
-22 -7 -4 -2 -0 -0 -0 -1 -0 -5 -75 -95 -115 -150 -0 -0 -0 -0 -0 -1 -0 -1 -0 -1 -1 -1 -1 -0 -0 -0 -0 -0 -0 -0 -0 -0 -0 -0 -0 -0 -0 -0 -0 -0
-2 -2 -2 -2 -15 -3 -5 -1 -0 -0 -21 -43 -38 -50 -49 -79 -0 -0 -0 -1 -0 -0 -2 -1 -1 -0 -0 -0 -0 -0 -0 -0 -0 -0 -0 -0 -0 -0 -0 -0 -0 -0 -0 -0
-1 -1 -1 -2 -4 -36 -22 -10 -0 -0 -0 -0 -0 -2 -13 -1 -0 -0 -0 -0 -0 -0 -1 -1 -0 -0 -0 -0 -0 -0 -0 -0 -0 -0 -0 -0 -0 -0 -0 -0 -0 -0 -0 -0
-0 -1 -0 -2 -13 -2 -1 -0 -6 -1 -0 -0 -17 -49 -5 -66 -14 -0 -0 -0 -0 -2 -0 -0 -0 -0 -0 -0 -0 -0 -0 -0 -0 -0 -0 -0 -0 -0 -1 -0 -0 -0 -0 -0
-0 -0 -1 -1 -1 -1 -1 -0 -37 -1 -9 -8 -15 -30 -45 -28 -13 -58 -1 -0 -1 -0 -0 -0 -0 -0 -0 -0 -0 -0 -0 -0 -0 -2 -4 -0 -3 -3 -2 -2 -1 -3 -1 -0
-1 -1 -1 -0 -2 -1 -1 -10 -1 -69 -1 -4 -20 -2 -10 -22 -90 -139 -3 -4 -1 -0 -0 -0 -0 -0 -0 -0 -0 -0 -2 -3 -2 -2 -18 -2 -2 -2 -5 -16 -8 -2 -4 -4
-1 -1 -0 -0 -1 -1 -1 -3 -1 -1 -2 -1 -2 -1 -7 -50 -72 -107 -129 -0 -1 -0 -0 -0 -0 -1 -0 -0 -0 -2 -2 -2 -3 -11 -23 -13 -19 -2 -0 -7 -3 -6 -6 -0
-2 -1 -2 -2 -1 -1 -2 -2 -15 -1 -1 -1 -6 -4 -38 -38 -30 -6 -6 -0 -0 -0 -0 -0 -2 -0 -0 -1 -1 -7 -3 -6 -5 -6 -3 -2 -0 -1 -7 -3 -6 -4 -3 -1
-123 -19 -23 -34 -2 -7 -0 -1 -1 -1 -1 -0 -2 -16 -16 -11 -2 -3 -1 -4 -1 -0 -13 -4 -0 -0 -0 -0 -0 -0 -0 -0 -0 -0 -0 -0 -0 -3 -3 -3 -0 -0 -2 -3
-113 -35 -50 -8 -0 -0 -1 -2 -3 -1 -1 -1 -0 -2 -6 -0 -0 -1 -0 -0 -0 -0 -0 -0 -0 -0 -0 -0 -0 -0 -0 -0 -0 -0 -0 -0 -0 -0 -2 -1 -2 -3 -1 -3
-61 -36 -35 -28 -32 -49 -64 -118 -151 -172 -132 -107 -0 -0 -0 -0 -0 -0 -0 -0 -0 -0 -0 -0 -0 -0 -0 -0 -0 -0 -0 -0 -0 -0 -0 -0 -2 -3 -4 -3 -3 -1 -2 -3
-30 -23 -47 -54 -80 -85 -102 -109 -123 -0 -0 -0 -0 -0 -0 -0 -0 -0 -0 -0 -0 -0 -0 -0 -0 -0 -0 -0 -0 -0 -0 -0 -0 -6 -0 -1 -2 -2 -2 -3 -2 -2 -4 -1
-2 -16 -4 -0 -0 -0 -0 -0 -0 -0 -0 -0 -0 -0 -0 -0 -0 -0 -0 -0 -0 -0 -0 -0 -0 -0 -0 -5 -2 -1 -1 -5 -0 -0 -0 -1 -2 -0 -1 -1 -2 -0 -0 -0
Wind_Speed
34 32 24 18 12 8 21 29 37 28 24 34 12 12 10 7 6 6 8 9 10 12 12 14 18 20 19 15 13 13 12 11 13 15 17 18 20 21 22 22 22 21 21 22
34 27 25 23 18 26 29 24 36 37 17 9 13 16 14 10 6 3 6 8 9 11 11 15 16 15 15 14 13 12 11 9 12 14 14 15 17 18 20 21 21 21 20 21
26 22 28 16 18 29 31 28 32 32 25 18 12 14 16 13 8 4 3 7 8 9 11 14 13 11 10 10 12 12 10 8 11 13 10 11 13 15 17 18 18 19 19 19
27 26 14 22 24 23 26 33 33 30 25 10 15 16 17 16 11 5 2 3 4 6 9 10 9 9 10 11 11 11 13 17 17 18 15 9 11 14 15 16 16 17 17 17
27 30 30 29 14 21 26 33 30 25 20 16 15 15 19 16 12 8 2 1 2 4 6 7 8 9 9 12 13 14 17 18 19 21 20 9 11 11 12 13 13 15 16 16
27 32 20 33 27 15 20 32 27 31 14 15 12 22 16 14 14 10 6 3 3 5 6 8 10 10 9 12 14 17 20 22 23 23 18 11 10 9 10 11 11 12 14 16
28 36 28 30 20 19 16 23 23 21 19 17 16 17 14 15 13 10 6 4 4 4 6 8 10 12 12 15 16 18 20 22 23 24 22 17 13 12 11 8 10 11 12 14
29 35 38 20 24 28 20 19 23 23 21 16 13 14 14 16 12 9 6 4 5 6 9 11 12 12 13 15 16 19 21 22 24 24 22 19 15 13 13 8 9 10 10 12
25 27 17 17 18 19 22 23 22 21 19 14 12 13 13 13 9 6 6 7 7 8 10 12 14 14 14 16 17 18 20 22 22 22 21 19 16 14 12 10 10 12 12 13
24 17 16 19 17 19 22 23 22 20 17 14 13 11 11 9 7 7 7 7 9 9 11 13 14 14 15 16 17 18 19 20 20 20 20 20 19 17 15 12 12 12 11 11
27 19 20 16 20 21 22 21 19 17 17 16 13 12 10 7 7 7 10 9 10 11 12 12 13 14 15 16 16 17 17 18 19 19 19 19 20 18 16 15 13 12 11 12
22 22 24 21 22 22 22 21 20 19 18 17 14 12 10 8 7 7 9 9 12 12 11 12 13 13 16 15 15 16 16 17 17 18 18 18 18 19 20 17 16 14 13 12
22 24 23 23 22 22 22 22 21 19 19 17 15 12 10 9 8 8 9 10 10 10 10 11 13 13 14 13 14 15 15 15 16 16 17 17 17 18 18 18 17 16 14 13
24 25 25 21 22 22 22 21 20 17 17 15 12 10 10 9 7 9 10 9 9 8 10 11 12 13 12 12 12 13 15 16 16 16 17 17 17 16 16 16 16 16 15 14
26 24 25 25 24 23 22 20 19 16 15 14 12 10 10 9 9 10 9 8 8 9 10 10 11 11 10 11 12 12 13 15 16 16 17 18 18 18 18 18 17 16 16 15
30 28 28 26 23 23 24 23 20 17 14 13 12 11 10 10 9 9 8 8 9 9 9 9 9 9 9 10 11 13 15 15 15 15 16 17 18 19 19 19 18 17 16 15
28 28 27 25 23 23 22 24 21 18 15 13 12 12 14 12 11 9 8 8 10 9 8 7 7 7 8 9 11 12 13 14 15 15 17 18 19 19 20 20 20 19 18 18
25 26 27 26 22 22 20 27 26 12 13 13 11 11 12 12 13 11 8 9 9 7 7 6 5 6 7 8 10 11 12 13 14 16 17 17 19 19 18 19 20 20 18 17
26 27 27 27 25 25 23 20 23 18 13 12 10 11 13 11 10 9 8 9 7 7 6 5 5 6 7 9 10 11 12 13 14 15 17 17 15 16 18 18 19 19 19 17
26 27 28 29 27 27 26 25 22 14 14 13 12 13 11 8 7 6 10 11 10 9 4 4 3 6 8 8 11 13 12 15 17 16 20 21 22 23 24 21 19 19 18 15
28 27 28 30 30 30 31 29 25 21 16 11 13 11 7 9 11 9 8 10 6 3 3 2 4 6 6 7 9 14 15 15 18 18 18 21 25 25 25 24 21 13 16 19
30 28 27 28 28 29 30 30 25 19 19 16 13 9 7 8 8 7 5 6 5 2 3 2 6 12 9 9 13 16 15 17 18 20 21 21 23 23 24 24 23 23 22 22
29 31 28 28 28 26 18 19 18 19 17 13 9 6 7 5 5 5 7 3 4 3 7 6 7 10 11 12 14 16 19 18 20 22 23 25 25 23 23 25 26 25 24 25
28 28 28 25 20 18 14 12 10 9 8 8 8 5 3 5 7 8 7 8 6 6 8 8 10 11 11 13 15 17 17 19 22 23 24 23 23 23 23 24 26 27 28 29
24 11 11 10 11 12 8 7 6 8 7 7 7 7 6 7 6 8 8 6 6 6 8 10 11 12 13 15 16 17 18 20 19 18 21 24 25 25 26 26 27 29 28 29
12 6 5 5 5 5 5 6 6 7 6 6 7 8 8 7 6 7 9 5 9 9 10 11 11 11 13 14 15 15 16 17 19 20 21 22 24 26 27 29 30 30 29 30
7 7 8 6 6 6 5 6 5 6 5 5 6 6 8 5 8 8 9 10 11 11 12 12 12 12 12 14 15 17 18 20 22 22 23 24 24 25 26 27 27 28 28 29
Wind_Direction
272 280 294 306 320 320 282 269 239 262 292 270 314 349 357 23 51 71 106 107 101 88 80 83 110 120 124 98 79 77 66 68 44 15 11 12 6 10 12 360 358 4 2 358
273 282 287 293 299 286 275 280 250 248 327 135 26 342 342 353 6 50 120 118 108 96 89 115 115 105 102 85 83 66 55 76 34 24 29 28 22 21 14 8 5 3 1 3
285 286 279 290 293 278 269 273 260 268 295 321 353 353 341 342 346 20 107 126 111 97 96 115 101 85 52 33 18 21 45 58 28 19 36 31 27 23 15 10 15 11 7 5
282 284 275 292 286 289 275 262 261 274 293 323 342 350 341 337 333 346 63 131 102 91 89 90 57 39 16 1 12 19 5 353 356 356 1 23 23 10 9 11 10 9 6 6
276 273 272 271 309 293 280 268 274 278 288 309 334 341 334 350 346 330 35 315 66 46 33 33 29 22 33 357 1 1 352 356 351 345 341 10 8 8 12 13 14 10 6 6
275 270 255 261 292 302 297 271 282 283 281 341 327 305 338 356 346 344 347 338 13 6 7 358 345 354 14 8 360 354 348 347 345 343 351 2 4 7 13 17 17 15 11 5
269 266 279 270 295 297 292 287 300 308 320 315 316 321 344 347 337 332 327 326 346 31 360 354 348 344 345 346 347 350 351 349 348 346 349 351 355 351 357 19 22 18 14 10
268 267 265 292 289 274 290 302 305 312 318 325 330 334 340 340 333 327 320 322 327 337 342 344 346 343 348 347 355 348 347 344 347 349 354 357 1 358 355 13 35 32 27 15
277 274 289 303 296 298 295 293 298 304 312 320 327 335 340 341 338 345 332 316 318 325 334 338 340 338 341 349 356 356 348 346 353 355 359 1 7 5 8 10 4 1 2 355
285 284 296 296 303 305 300 299 298 302 306 313 322 333 344 347 335 330 326 319 318 323 329 330 335 338 352 350 358 1 0 1 357 358 0 3 5 5 4 358 356 356 0 3
271 293 294 301 303 301 303 304 305 309 310 309 316 320 333 337 327 321 314 318 318 320 320 330 338 337 349 354 359 5 8 7 7 7 11 11 9 9 7 8 8 360 358 359
273 289 289 295 304 302 300 301 302 302 308 311 313 317 320 322 323 322 318 321 316 316 325 331 340 343 341 352 358 3 6 7 8 9 10 14 13 13 12 13 13 13 9 4
290 294 296 296 299 302 301 299 301 301 302 305 309 311 311 310 316 320 321 324 326 326 332 337 343 345 347 355 356 0 4 9 11 13 11 11 13 12 10 10 14 12 9 4
291 291 286 296 296 301 301 302 302 306 304 304 305 308 309 310 318 318 317 322 327 336 335 338 342 345 351 356 4 6 4 4 9 8 8 9 11 12 14 12 7 4 7 7
287 288 289 293 296 297 297 300 300 303 303 301 299 299 301 302 308 315 318 322 326 329 332 335 340 348 1 2 6 13 13 11 12 13 11 11 12 8 6 3 3 4 2 1
283 283 284 289 294 296 297 291 293 296 301 297 295 294 297 303 308 313 316 317 318 321 329 336 344 356 14 19 14 12 9 10 16 15 15 12 9 6 4 3 360 358 355 1
287 282 281 287 288 290 294 297 293 289 289 291 292 294 295 299 304 306 305 316 318 324 334 344 354 12 14 16 15 13 13 6 4 10 6 3 3 2 0 360 358 356 356 356
291 290 285 285 283 290 290 280 289 300 283 287 290 295 300 295 291 289 301 312 318 333 333 350 17 26 18 17 13 14 10 8 4 2 2 1 356 357 358 357 356 356 356 359
293 290 286 281 282 279 283 283 279 286 283 286 294 289 278 301 292 298 310 300 316 315 327 4 14 15 7 1 7 8 1 358 358 357 354 355 1 1 355 352 352 353 354 357
295 292 285 279 276 273 271 272 277 277 279 282 287 292 289 288 305 319 293 288 300 311 350 358 12 351 354 2 345 345 352 346 345 349 350 347 342 341 342 346 346 349 351 356
296 291 286 275 271 266 261 264 267 273 278 276 280 280 292 296 293 302 306 298 330 22 3 58 359 6 1 2 350 346 343 345 344 346 345 341 339 341 341 342 349 352 348 344
284 287 285 277 272 266 260 259 264 277 274 278 284 290 302 305 305 313 312 324 358 33 28 31 349 342 355 357 348 345 349 340 344 344 342 343 341 344 345 346 345 343 343 342
275 261 268 263 263 263 271 264 268 270 276 285 289 290 309 307 318 311 322 359 18 93 351 356 357 353 355 354 350 345 343 347 345 342 340 339 339 344 345 342 340 339 340 339
231 237 238 246 260 261 272 286 290 301 301 305 302 320 335 348 344 337 348 351 8 11 357 349 358 357 354 351 349 347 346 342 337 336 334 344 343 341 343 343 340 339 340 339
214 291 291 282 270 258 276 298 314 315 318 320 320 329 334 330 350 2 353 340 1 7 5 3 360 355 355 347 346 344 341 337 341 342 339 338 338 341 340 340 341 342 342 343
75 359 343 342 341 319 327 332 331 317 317 324 316 323 328 330 333 22 37 12 28 29 19 359 358 2 357 357 353 352 352 350 343 342 344 346 346 345 344 342 340 342 341 342
2 4 19 10 355 11 13 7 341 315 334 18 15 325 4 4 26 31 38 36 34 38 38 38 27 17 10 3 2 356 359 7 1 354 352 351 350 349 348 348 348 347 345 345